User: anonymous   Login
Location: Newark
(41.9000°N, 12.4833°E)
Time: 22:44:20
(UTC+00:00)
Language:

EO-79 - Orbit

View from above orbital plane
View from above orbital plane
View from above satellite
View from above satellite

Ground track
Ground track

The orbit data is extracted from the following two-line orbital elements,

1 40025U 14033R   19139.72749927  .00000262  00000-0  33854-4 0  9999
2 40025  97.9067  59.4592 0012987 152.0000 208.1918 14.88925600266860
Epoch (UTC): 19 May 2019 17:27:35
Eccentricity: 0.0012987
inclination: 97.9067°
perigee height: 592 km
apogee height: 610 km
right ascension of ascending node: 59.4592°
argument of perigee: 152.0000°
revolutions per day: 14.88925600
mean anomaly at epoch: 208.1918°
orbit number at epoch: 26686

The dashed part of the orbit path shows where the satellite is in the earth's shadow,  

DLR